Location: Baix
(44.7118°N, 4.7648°E)
Time: 16:00:09
(UTC+00:00)

Cosmos 1943 - Pass Details

Date: 07 August 2020
Orbit: 834 x 849 km, 71.0° (Epoch: 22 September)

Event Time Altitude Azimuth Distance (km) Brightness Sun altitude
Rises 03:05:16 0° 336° (NNW) 3,392 6.6 -14.1°
Reaches altitude 10° 03:07:44 10° 338° (NNW) 2,454 5.9 -13.8°
Maximum altitude 03:13:21 70° 62° (ENE) 891 3.5 -13.0°
Drops below altitude 10° 03:18:56 10° 146° (SSE) 2,443 5.6 -12.3°
Sets 03:21:23 0° 149° (SSE) 3,375 6.3 -11.9°
